| time (UTC) | temp F | wind direction | speed MPH | gust MPH | rain 1hr in | rain 24hr in | rain mn in | humidity % | barometer mb |
| 20260506212602 | 51 | 0.0 | 0.0 | 0.00 | 0.00 | 0.00 | 88 | 1013.9 | |
| 20260506212103 | 51 | 0.0 | 0.0 | 0.00 | 0.00 | 0.00 | 89 | 1013.8 | |
| 20260506211603 | 50 | 0.0 | 0.0 | 0.00 | 0.00 | 0.00 | 88 | 1013.8 | |
| 20260506211102 | 50 | 0.0 | 0.0 | 0.00 | 0.00 | 0.00 | 90 | 1013.8 | |
| 20260506210602 | 51 | 0.0 | 0.0 | 0.00 | 0.00 | 0.00 | 84 | 1013.7 | |
| 20260506205602 | 51 | 0.0 | 0.0 | 0.00 | 0.00 | 0.00 | 84 | 1013.7 | |
| 20260506205102 | 51 | 0.0 | 0.0 | 0.00 | 0.00 | 0.00 | 85 | 1013.6 | |
| 20260506204602 | 51 | 0.0 | 0.0 | 0.00 | 0.00 | 0.00 | 85 | 1013.7 | |
| 20260506204103 | 51 | 0.0 | 0.0 | 0.00 | 0.00 | 0.00 | 85 | 1013.6 | |
| 20260506203603 | 51 | 0.0 | 0.0 | 0.00 | 0.00 | 0.00 | 88 | 1013.6 | |
| 20260506203102 | 50 | 0.0 | 0.0 | 0.00 | 0.00 | 0.00 | 88 | 1013.6 | |
| 20260506202602 | 51 | 0.0 | 0.0 | 0.00 | 0.00 | 0.00 | 86 | 1013.5 | |
| 20260506202102 | 51 | 0.0 | 0.0 | 0.00 | 0.00 | 0.00 | 83 | 1013.5 | |
| 20260506201603 | 51 | 0.0 | 0.0 | 0.00 | 0.00 | 0.00 | 84 | 1013.4 | |
| 20260506201102 | 51 | 0.0 | 0.0 | 0.00 | 0.00 | 0.00 | 82 | 1013.5 | |
| 20260506200603 | 51 | 0.0 | 0.0 | 0.00 | 0.00 | 0.00 | 82 | 1013.4 | |
| 20260506195603 | 51 | 0.0 | 0.0 | 0.00 | 0.00 | 0.00 | 84 | 1013.3 | |
| 20260506195103 | 50 | 0.0 | 0.0 | 0.00 | 0.00 | 0.00 | 83 | 1013.2 | |
| 20260506194602 | 51 | 0.0 | 0.0 | 0.00 | 0.00 | 0.00 | 82 | 1013.1 | |
| 20260506194103 | 51 | 0.0 | 0.0 | 0.00 | 0.00 | 0.00 | 85 | 1013.0 | |
| 20260506193602 | 51 | 0.0 | 0.0 | 0.00 | 0.00 | 0.00 | 84 | 1012.9 | |
| 20260506193102 | 51 | 0.0 | 0.0 | 0.00 | 0.00 | 0.00 | 83 | 1012.8 | |
| 20260506192603 | 51 | 0.0 | 0.0 | 0.00 | 0.00 | 0.00 | 83 | 1012.8 | |
| 20260506192103 | 51 | 0.0 | 0.0 | 0.00 | 0.00 | 0.00 | 86 | 1012.8 | |
| 20260506191602 | 51 | 0.0 | 0.0 | 0.00 | 0.00 | 0.00 | 87 | 1012.7 | |
| 20260506191102 | 51 | 0.0 | 0.0 | 0.00 | 0.00 | 0.00 | 88 | 1012.7 | |
| 20260506190603 | 51 | 0.0 | 0.0 | 0.00 | 0.00 | 0.00 | 87 | 1012.6 | |
| 20260506185602 | 51 | 0.0 | 0.0 | 0.00 | 0.00 | 0.00 | 87 | 1012.5 | |
| 20260506185103 | 51 | 0.0 | 0.0 | 0.00 | 0.00 | 0.00 | 85 | 1012.4 | |
| 20260506184602 | 52 | 0.0 | 0.0 | 0.00 | 0.00 | 0.00 | 83 | 1012.4 | |
| 20260506184102 | 52 | 0.0 | 0.0 | 0.00 | 0.00 | 0.00 | 84 | 1012.4 | |
| 20260506183603 | 51 | 0.0 | 0.0 | 0.00 | 0.00 | 0.00 | 83 | 1012.3 | |
| 20260506183103 | 52 | 0.0 | 0.0 | 0.00 | 0.00 | 0.00 | 86 | 1012.2 | |
| 20260506182603 | 52 | 0.0 | 0.0 | 0.00 | 0.00 | 0.00 | 84 | 1012.3 | |
| 20260506182102 | 52 | 0.0 | 0.0 | 0.00 | 0.00 | 0.00 | 83 | 1012.3 | |
| 20260506181103 | 52 | 0.0 | 0.0 | 0.00 | 0.00 | 0.00 | 86 | 1012.3 | |
| 20260506180602 | 52 | 0.0 | 0.0 | 0.00 | 0.00 | 0.00 | 87 | 1012.2 | |
| 20260506175603 | 52 | 0.0 | 0.0 | 0.00 | 0.00 | 0.00 | 89 | 1012.1 | |
| 20260506175103 | 52 | 0.0 | 0.0 | 0.00 | 0.00 | 0.00 | 88 | 1012.1 | |
| 20260506174603 | 52 | 0.0 | 0.0 | 0.00 | 0.00 | 0.00 | 81 | 1012.1 | |
| 20260506174102 | 52 | 0.0 | 0.0 | 0.00 | 0.00 | 0.00 | 83 | 1012.0 | |
| 20260506173603 | 53 | 0.0 | 0.0 | 0.00 | 0.00 | 0.00 | 87 | 1011.9 | |
| 20260506173102 | 53 | 0.0 | 0.0 | 0.00 | 0.00 | 0.00 | 88 | 1012.0 | |
| 20260506172603 | 53 | 0.0 | 0.0 | 0.00 | 0.00 | 0.00 | 87 | 1012.0 | |
| 20260506172102 | 53 | 0.0 | 0.0 | 0.00 | 0.00 | 0.00 | 91 | 1011.9 | |
| 20260506171602 | 53 | 0.0 | 0.0 | 0.00 | 0.00 | 0.00 | 90 | 1011.9 | |
| 20260506171103 | 52 | 0.0 | 0.0 | 0.00 | 0.00 | 0.00 | 93 | 1011.7 | |
| 20260506170602 | 52 | 0.0 | 0.0 | 0.00 | 0.00 | 0.00 | 92 | 1011.5 | |
| 20260506165602 | 53 | 0.0 | 0.0 | 0.00 | 0.00 | 0.00 | 89 | 1011.3 | |
| 20260506165103 | 53 | 0.0 | 0.0 | 0.00 | 0.00 | 0.00 | 88 | 1011.2 | |
| 20260506164603 | 53 | 0.0 | 0.0 | 0.00 | 0.00 | 0.00 | 84 | 1011.2 | |
| 20260506164103 | 53 | 0.0 | 0.0 | 0.00 | 0.00 | 0.00 | 76 | 1011.1 | |
| 20260506163602 | 54 | 0.0 | 0.0 | 0.00 | 0.00 | 0.00 | 78 | 1011.0 | |
| 20260506163103 | 54 | 0.0 | 0.0 | 0.00 | 0.00 | 0.00 | 73 | 1011.0 | |
| 20260506162601 | 54 | 0.0 | 0.0 | 0.00 | 0.00 | 0.00 | 76 | 1010.9 | |
| 20260506162102 | 54 | 0.0 | 0.0 | 0.00 | 0.00 | 0.00 | 72 | 1010.9 | |
| 20260506161603 | 55 | 0.0 | 0.0 | 0.00 | 0.00 | 0.00 | 70 | 1010.8 | |
| 20260506161102 | 55 | 0.0 | 0.0 | 0.00 | 0.00 | 0.00 | 77 | 1010.8 | |
| 20260506160103 | 56 | 0.0 | 0.0 | 0.00 | 0.00 | 0.00 | 71 | 1010.8 | |
| 20260506155602 | 56 | 0.0 | 0.0 | 0.00 | 0.00 | 0.00 | 67 | 1010.8 | |
| 20260506155102 | 56 | 0.0 | 0.0 | 0.00 | 0.00 | 0.00 | 71 | 1010.9 | |
| 20260506154103 | 55 | 0.0 | 0.0 | 0.00 | 0.00 | 0.00 | 75 | 1011.0 | |
| 20260506153603 | 55 | 0.0 | 0.0 | 0.00 | 0.00 | 0.00 | 75 | 1011.0 | |
| 20260506153102 | 55 | 0.0 | 0.0 | 0.00 | 0.00 | 0.00 | 76 | 1011.0 | |
| 20260506152602 | 54 | 0.0 | 0.0 | 0.00 | 0.00 | 0.00 | 85 | 1011.1 | |
| 20260506152103 | 54 | 0.0 | 0.0 | 0.00 | 0.00 | 0.00 | 82 | 1011.1 | |
| 20260506151603 | 53 | 0.0 | 0.0 | 0.00 | 0.00 | 0.00 | 79 | 1011.2 | |
| 20260506151102 | 53 | 0.0 | 0.0 | 0.00 | 0.00 | 0.00 | 85 | 1011.2 | |
| 20260506145603 | 52 | 0.0 | 0.0 | 0.00 | 0.00 | 0.00 | 84 | 1010.9 | |
| 20260506144602 | 53 | 0.0 | 0.0 | 0.00 | 0.00 | 0.00 | 83 | 1010.8 | |
| 20260506144103 | 52 | 0.0 | 0.0 | 0.00 | 0.00 | 0.00 | 81 | 1010.8 | |
| 20260506143602 | 53 | 0.0 | 0.0 | 0.00 | 0.00 | 0.00 | 83 | 1010.7 | |
| 20260506143103 | 53 | 0.0 | 0.0 | 0.00 | 0.00 | 0.00 | 81 | 1010.7 | |
| 20260506142602 | 54 | 0.0 | 0.0 | 0.00 | 0.00 | 0.00 | 78 | 1010.6 | |
| 20260506142102 | 53 | 0.0 | 0.0 | 0.00 | 0.00 | 0.00 | 76 | 1010.5 | |
| 20260506141601 | 54 | 0.0 | 0.0 | 0.00 | 0.00 | 0.00 | 77 | 1010.4 | |
| 20260506141103 | 54 | 0.0 | 0.0 | 0.00 | 0.00 | 0.00 | 73 | 1010.5 | |
| 20260506140603 | 55 | 0.0 | 0.0 | 0.00 | 0.00 | 0.00 | 72 | 1010.4 | |
| 20260506135603 | 56 | 0.0 | 0.0 | 0.00 | 0.00 | 0.00 | 49 | 1010.4 | |
| 20260506135103 | 56 | 0.0 | 0.0 | 0.00 | 0.00 | 0.00 | 47 | 1010.4 | |
| 20260506134602 | 56 | 0.0 | 0.0 | 0.00 | 0.00 | 0.00 | 48 | 1010.3 | |
| 20260506134102 | 56 | 0.0 | 0.0 | 0.00 | 0.00 | 0.00 | 47 | 1010.2 | |
| 20260506133603 | 56 | 0.0 | 0.0 | 0.00 | 0.00 | 0.00 | 47 | 1010.1 | |
| 20260506133103 | 56 | 0.0 | 0.0 | 0.00 | 0.00 | 0.00 | 47 | 1010.1 | |
| 20260506132602 | 57 | 0.0 | 0.0 | 0.00 | 0.00 | 0.00 | 46 | 1010.0 | |
| 20260506132102 | 57 | 0.0 | 0.0 | 0.00 | 0.00 | 0.00 | 45 | 1010.0 | |
| 20260506131603 | 57 | 0.0 | 0.0 | 0.00 | 0.00 | 0.00 | 45 | 1009.9 | |
| 20260506131102 | 57 | 0.0 | 0.0 | 0.00 | 0.00 | 0.00 | 45 | 1009.9 | |
| 20260506130603 | 58 | 0.0 | 0.0 | 0.00 | 0.00 | 0.00 | 48 | 1009.9 | |
| 20260506125101 | 57 | 0.0 | 0.0 | 0.00 | 0.00 | 0.00 | 48 | 1010.0 | |
| 20260506124603 | 58 | 0.0 | 0.0 | 0.00 | 0.00 | 0.00 | 46 | 1009.9 | |
| 20260506124102 | 58 | 0.0 | 0.0 | 0.00 | 0.00 | 0.00 | 46 | 1009.9 | |
| 20260506123603 | 59 | 0.0 | 0.0 | 0.00 | 0.00 | 0.00 | 45 | 1009.9 | |
| 20260506123102 | 58 | 0.0 | 0.0 | 0.00 | 0.00 | 0.00 | 43 | 1009.9 | |
| 20260506122602 | 58 | 0.0 | 0.0 | 0.00 | 0.00 | 0.00 | 45 | 1010.0 | |
| 20260506122102 | 58 | 0.0 | 0.0 | 0.00 | 0.00 | 0.00 | 45 | 1010.0 | |
| 20260506121602 | 57 | 0.0 | 0.0 | 0.00 | 0.00 | 0.00 | 46 | 1010.0 | |
| 20260506121102 | 57 | 0.0 | 0.0 | 0.00 | 0.00 | 0.00 | 46 | 1010.0 | |
| 20260506120603 | 57 | 0.0 | 0.0 | 0.00 | 0.00 | 0.00 | 45 | 1010.0 | |
| 20260506115602 | 58 | 0.0 | 0.0 | 0.00 | 0.00 | 0.00 | 45 | 1009.9 | |
| 20260506115103 | 57 | 0.0 | 0.0 | 0.00 | 0.00 | 0.00 | 45 | 1010.0 | |
| 20260506114102 | 57 | 0.0 | 0.0 | 0.00 | 0.00 | 0.00 | 45 | 1010.1 | |
| 20260506113603 | 57 | 0.0 | 0.0 | 0.00 | 0.00 | 0.00 | 45 | 1010.1 | |
| 20260506113102 | 57 | 0.0 | 0.0 | 0.00 | 0.00 | 0.00 | 45 | 1010.1 | |
| 20260506112602 | 57 | 0.0 | 0.0 | 0.00 | 0.00 | 0.00 | 46 | 1010.2 | |
| 20260506112102 | 56 | 0.0 | 0.0 | 0.00 | 0.00 | 0.00 | 47 | 1010.2 | |
| 20260506111602 | 56 | 0.0 | 0.0 | 0.00 | 0.00 | 0.00 | 46 | 1010.2 | |
| 20260506111102 | 56 | 0.0 | 0.0 | 0.00 | 0.00 | 0.00 | 46 | 1010.2 | |
| 20260506110602 | 56 | 0.0 | 0.0 | 0.00 | 0.00 | 0.00 | 47 | 1010.3 | |
| 20260506110103 | 56 | 0.0 | 0.0 | 0.00 | 0.00 | 0.00 | 48 | 1010.4 | |
| 20260506105603 | 56 | 0.0 | 0.0 | 0.00 | 0.00 | 0.00 | 47 | 1010.4 | |
| 20260506105102 | 56 | 0.0 | 0.0 | 0.00 | 0.00 | 0.00 | 47 | 1010.4 | |
| 20260506104603 | 56 | 0.0 | 0.0 | 0.00 | 0.00 | 0.00 | 47 | 1010.4 | |
| 20260506104103 | 56 | 0.0 | 0.0 | 0.00 | 0.00 | 0.00 | 47 | 1010.4 | |
| 20260506103602 | 56 | 0.0 | 0.0 | 0.00 | 0.00 | 0.00 | 46 | 1010.4 | |
| 20260506103103 | 57 | 0.0 | 0.0 | 0.00 | 0.00 | 0.00 | 46 | 1010.5 | |
| 20260506102102 | 58 | 0.0 | 0.0 | 0.00 | 0.00 | 0.00 | 47 | 1010.5 | |
| 20260506101602 | 58 | 0.0 | 0.0 | 0.00 | 0.00 | 0.00 | 47 | 1010.6 | |
| 20260506101103 | 58 | 0.0 | 0.0 | 0.00 | 0.00 | 0.00 | 48 | 1010.6 | |
| 20260506095603 | 57 | 0.0 | 0.0 | 0.00 | 0.00 | 0.00 | 51 | 1010.7 | |
| 20260506095103 | 57 | 0.0 | 0.0 | 0.00 | 0.00 | 0.00 | 51 | 1010.8 | |
| 20260506094102 | 57 | 0.0 | 0.0 | 0.00 | 0.00 | 0.00 | 52 | 1010.8 | |
| 20260506093603 | 56 | 0.0 | 0.0 | 0.00 | 0.00 | 0.00 | 52 | 1010.8 | |
| 20260506092602 | 55 | 0.0 | 0.0 | 0.00 | 0.00 | 0.00 | 53 | 1010.9 | |
| 20260506091602 | 53 | 0.0 | 0.0 | 0.00 | 0.00 | 0.00 | 54 | 1010.9 | |
| 20260506091103 | 52 | 0.0 | 0.0 | 0.00 | 0.00 | 0.00 | 55 | 1010.9 | |
| 20260506090603 | 52 | 0.0 | 0.0 | 0.00 | 0.00 | 0.00 | 57 | 1010.9 | |
| 20260506085603 | 52 | 0.0 | 0.0 | 0.00 | 0.00 | 0.00 | 57 | 1011.1 | |
| 20260506085102 | 52 | 0.0 | 0.0 | 0.00 | 0.00 | 0.00 | 61 | 1011.2 | |
| 20260506084103 | 51 | 0.0 | 0.0 | 0.00 | 0.00 | 0.00 | 61 | 1011.2 | |
| 20260506083603 | 51 | 0.0 | 0.0 | 0.00 | 0.00 | 0.00 | 61 | 1011.1 | |
| 20260506083102 | 51 | 0.0 | 0.0 | 0.00 | 0.00 | 0.00 | 62 | 1011.1 | |
| 20260506082103 | 50 | 0.0 | 0.0 | 0.00 | 0.00 | 0.00 | 64 | 1011.2 | |
| 20260506081103 | 51 | 0.0 | 0.0 | 0.00 | 0.00 | 0.00 | 63 | 1011.3 | |
| 20260506080604 | 51 | 0.0 | 0.0 | 0.00 | 0.00 | 0.00 | 62 | 1011.3 | |
| 20260506073102 | 49 | 0.0 | 0.0 | 0.00 | 0.00 | 0.00 | 67 | 1011.5 | |
| 20260506072602 | 49 | 0.0 | 0.0 | 0.00 | 0.00 | 0.00 | 68 | 1011.5 | |
| 20260506072102 | 49 | 0.0 | 0.0 | 0.00 | 0.00 | 0.00 | 68 | 1011.5 | |
| 20260506071603 | 49 | 0.0 | 0.0 | 0.00 | 0.00 | 0.00 | 69 | 1011.6 | |
| 20260506071103 | 49 | 0.0 | 0.0 | 0.00 | 0.00 | 0.00 | 70 | 1011.5 | |
| 20260506070603 | 49 | 0.0 | 0.0 | 0.00 | 0.00 | 0.00 | 69 | 1011.5 | |
| 20260506062103 | 48 | 0.0 | 0.0 | 0.00 | 0.00 | 0.00 | 75 | 1011.5 | |
| 20260506061603 | 48 | 0.0 | 0.0 | 0.00 | 0.00 | 0.00 | 76 | 1011.5 | |
| 20260506061102 | 47 | 0.0 | 0.0 | 0.00 | 0.00 | 0.00 | 76 | 1011.5 | |
| 20260506060604 | 47 | 0.0 | 0.0 | 0.00 | 0.00 | 0.00 | 78 | 1011.6 | |
| 20260506051103 | 46 | 0.0 | 0.0 | 0.00 | 0.00 | 0.00 | 79 | 1011.2 | |
| 20260506050602 | 46 | 0.0 | 0.0 | 0.00 | 0.00 | 0.00 | 80 | 1011.1 | |
| 20260506045102 | 46 | 0.0 | 0.0 | 0.00 | 0.00 | 0.00 | 82 | 1011.1 | |
| 20260506044602 | 45 | 0.0 | 0.0 | 0.00 | 0.00 | 0.00 | 84 | 1011.1 | |
| 20260506044103 | 45 | 0.0 | 0.0 | 0.00 | 0.00 | 0.00 | 85 | 1011.1 | |
| 20260506043602 | 46 | 0.0 | 0.0 | 0.00 | 0.00 | 0.00 | 82 | 1011.0 | |
| 20260506043103 | 47 | 0.0 | 0.0 | 0.00 | 0.00 | 0.00 | 80 | 1011.0 | |
| 20260506042604 | 47 | 0.0 | 0.0 | 0.00 | 0.00 | 0.00 | 80 | 1011.0 | |
| 20260506042103 | 47 | 0.0 | 0.0 | 0.00 | 0.00 | 0.00 | 81 | 1010.9 | |
| 20260506041602 | 46 | 0.0 | 0.0 | 0.00 | 0.00 | 0.00 | 81 | 1010.9 | |
| 20260506040602 | 48 | 0.0 | 0.0 | 0.00 | 0.00 | 0.00 | 77 | 1010.7 | |
| 20260506035602 | 46 | 0.0 | 0.0 | 0.00 | 0.00 | 0.00 | 82 | 1010.8 | |
| 20260506035103 | 47 | 0.0 | 0.0 | 0.00 | 0.00 | 0.00 | 81 | 1010.7 | |
| 20260506034603 | 48 | 0.0 | 0.0 | 0.00 | 0.00 | 0.00 | 78 | 1010.8 | |
| 20260506034102 | 48 | 0.0 | 0.0 | 0.00 | 0.00 | 0.00 | 76 | 1010.8 | |
| 20260506033602 | 48 | 0.0 | 0.0 | 0.00 | 0.00 | 0.00 | 78 | 1010.8 | |
| 20260506033102 | 47 | 0.0 | 0.0 | 0.00 | 0.00 | 0.00 | 78 | 1010.8 | |
| 20260506032603 | 49 | 0.0 | 0.0 | 0.00 | 0.00 | 0.00 | 75 | 1010.8 | |
| 20260506032102 | 48 | 0.0 | 0.0 | 0.00 | 0.00 | 0.00 | 76 | 1010.8 | |
| 20260506031603 | 48 | 0.0 | 0.0 | 0.00 | 0.00 | 0.00 | 77 | 1010.8 | |
| 20260506031103 | 48 | 0.0 | 0.0 | 0.00 | 0.00 | 0.00 | 78 | 1010.9 | |
| 20260506030602 | 48 | 0.0 | 0.0 | 0.00 | 0.00 | 0.00 | 80 | 1010.8 | |
| 20260506030107 | 49 | 0.0 | 0.0 | 0.00 | 0.00 | 0.00 | 78 | 1010.8 | |
| 20260506025602 | 49 | 0.0 | 0.0 | 0.00 | 0.00 | 0.00 | 78 | 1010.8 | |
| 20260506025102 | 48 | 0.0 | 0.0 | 0.00 | 0.00 | 0.00 | 79 | 1010.8 | |
| 20260506024602 | 47 | 0.0 | 0.0 | 0.00 | 0.00 | 0.00 | 82 | 1010.9 | |
| 20260506024103 | 47 | 0.0 | 0.0 | 0.00 | 0.00 | 0.00 | 82 | 1010.9 | |
| 20260506023604 | 47 | 0.0 | 0.0 | 0.00 | 0.00 | 0.00 | 82 | 1010.9 | |
| 20260506023103 | 48 | 0.0 | 0.0 | 0.00 | 0.00 | 0.00 | 79 | 1010.9 | |
| 20260506022602 | 47 | 0.0 | 0.0 | 0.00 | 0.00 | 0.00 | 81 | 1010.9 | |
| 20260506022103 | 47 | 0.0 | 0.0 | 0.00 | 0.00 | 0.00 | 82 | 1010.9 | |
| 20260506021602 | 47 | 0.0 | 0.0 | 0.00 | 0.00 | 0.00 | 83 | 1010.9 | |
| 20260506021103 | 47 | 0.0 | 0.0 | 0.00 | 0.00 | 0.00 | 83 | 1010.9 | |
| 20260506020602 | 47 | 0.0 | 0.0 | 0.00 | 0.00 | 0.00 | 83 | 1010.9 | |
| 20260506020103 | 46 | 0.0 | 0.0 | 0.00 | 0.00 | 0.00 | 84 | 1010.9 | |
| 20260506015603 | 47 | 0.0 | 0.0 | 0.00 | 0.00 | 0.00 | 83 | 1010.9 | |
| 20260506015102 | 47 | 0.0 | 0.0 | 0.00 | 0.00 | 0.00 | 84 | 1010.9 | |
| 20260506014602 | 47 | 0.0 | 0.0 | 0.00 | 0.00 | 0.00 | 84 | 1010.9 | |
| 20260506014102 | 47 | 0.0 | 0.0 | 0.00 | 0.00 | 0.00 | 81 | 1011.0 | |
| 20260506013603 | 49 | 0.0 | 0.0 | 0.00 | 0.00 | 0.00 | 75 | 1011.0 | |
| 20260506013103 | 48 | 0.0 | 0.0 | 0.00 | 0.00 | 0.00 | 76 | 1010.9 | |
| 20260506012603 | 49 | 0.0 | 0.0 | 0.00 | 0.00 | 0.00 | 75 | 1010.9 | |
| 20260506012102 | 49 | 0.0 | 0.0 | 0.00 | 0.00 | 0.00 | 75 | 1010.8 | |
| 20260506011602 | 49 | 0.0 | 0.0 | 0.00 | 0.00 | 0.00 | 76 | 1010.8 | |
| 20260506011102 | 49 | 0.0 | 0.0 | 0.00 | 0.00 | 0.00 | 76 | 1010.8 | |
| 20260506010603 | 49 | 0.0 | 0.0 | 0.00 | 0.00 | 0.00 | 75 | 1010.8 | |
| 20260506005602 | 49 | 0.0 | 0.0 | 0.00 | 0.00 | 0.00 | 76 | 1010.9 | |
| 20260506005102 | 49 | 0.0 | 0.0 | 0.00 | 0.00 | 0.00 | 77 | 1010.9 | |
| 20260506004604 | 49 | 0.0 | 0.0 | 0.00 | 0.00 | 0.00 | 78 | 1011.0 | |
| 20260506004103 | 49 | 0.0 | 0.0 | 0.00 | 0.00 | 0.00 | 77 | 1011.1 | |
| 20260506003609 | 50 | 0.0 | 0.0 | 0.00 | 0.00 | 0.00 | 78 | 1011.1 | |
| 20260506003102 | 49 | 0.0 | 0.0 | 0.00 | 0.00 | 0.00 | 78 | 1011.2 | |
| 20260506002602 | 49 | 0.0 | 0.0 | 0.00 | 0.00 | 0.00 | 78 | 1011.2 | |
| 20260506002102 | 49 | 0.0 | 0.0 | 0.00 | 0.00 | 0.00 | 78 | 1011.3 | |
| 20260506001602 | 49 | 0.0 | 0.0 | 0.00 | 0.00 | 0.00 | 78 | 1011.3 | |
| 20260506001102 | 50 | 0.0 | 0.0 | 0.00 | 0.00 | 0.00 | 75 | 1011.3 | |
| 20260506000601 | 50 | 0.0 | 0.0 | 0.00 | 0.00 | 0.00 | 77 | 1011.4 | |
| 20260505235603 | 49 | 0.0 | 0.0 | 0.00 | 0.00 | 0.00 | 80 | 1011.5 | |
| 20260505235102 | 49 | 0.0 | 0.0 | 0.00 | 0.00 | 0.00 | 78 | 1011.4 | |
| 20260505234602 | 49 | 0.0 | 0.0 | 0.00 | 0.00 | 0.00 | 78 | 1011.4 | |
| 20260505234102 | 49 | 0.0 | 0.0 | 0.00 | 0.00 | 0.00 | 79 | 1011.5 | |
| 20260505233603 | 50 | 0.0 | 0.0 | 0.00 | 0.00 | 0.00 | 76 | 1011.4 | |
| 20260505232602 | 49 | 0.0 | 0.0 | 0.00 | 0.00 | 0.00 | 79 | 1011.4 | |
| 20260505231602 | 51 | 0.0 | 0.0 | 0.00 | 0.00 | 0.00 | 74 | 1011.4 | |
| 20260505231102 | 51 | 0.0 | 0.0 | 0.00 | 0.00 | 0.00 | 75 | 1011.3 | |
| 20260505230602 | 51 | 0.0 | 0.0 | 0.00 | 0.00 | 0.00 | 75 | 1011.4 | |
| 20260505225602 | 50 | 0.0 | 0.0 | 0.00 | 0.00 | 0.00 | 77 | 1011.5 | |
| 20260505225102 | 50 | 0.0 | 0.0 | 0.00 | 0.00 | 0.00 | 76 | 1011.5 | |
| 20260505224103 | 51 | 0.0 | 0.0 | 0.00 | 0.00 | 0.00 | 76 | 1011.5 | |
| 20260505223602 | 51 | 0.0 | 0.0 | 0.00 | 0.00 | 0.00 | 76 | 1011.6 | |
| 20260505222602 | 50 | 0.0 | 0.0 | 0.00 | 0.00 | 0.00 | 76 | 1011.6 | |
| 20260505222102 | 50 | 0.0 | 0.0 | 0.00 | 0.00 | 0.00 | 77 | 1011.6 | |
| 20260505221602 | 50 | 0.0 | 0.0 | 0.00 | 0.00 | 0.00 | 76 | 1011.6 | |
| 20260505221103 | 50 | 0.0 | 0.0 | 0.00 | 0.00 | 0.00 | 76 | 1011.6 | |
| 20260505220602 | 51 | 0.0 | 0.0 | 0.00 | 0.00 | 0.00 | 75 | 1011.8 | |
| 20260505215602 | 50 | 0.0 | 0.0 | 0.00 | 0.00 | 0.00 | 75 | 1011.8 | |
| 20260505215102 | 50 | 0.0 | 0.0 | 0.00 | 0.00 | 0.00 | 76 | 1011.8 | |
| 20260505214603 | 51 | 0.0 | 0.0 | 0.00 | 0.00 | 0.00 | 73 | 1011.8 | |
| 20260505214107 | 51 | 0.0 | 0.0 | 0.00 | 0.00 | 0.00 | 74 | 1011.9 | |
| 20260505213603 | 50 | 0.0 | 0.0 | 0.00 | 0.00 | 0.00 | 74 | 1011.8 | |
| 20260505213103 | 51 | 0.0 | 0.0 | 0.00 | 0.00 | 0.00 | 75 | 1011.8 |